Погода в Среднем

Россия / Иркутская область     52°52′51″N   103°29′20″E
В апреле 2022 года жителям России запретили посещать сайт meteo.paraplan.net по решению Генеральной прокуратуры. Аудитория сайта уменьшилась в 10 раз. Владельцы сайта не видят смысла в поддержке погодного сервера в таких условиях. Сайт будет закрыт в октябре.
темп.,
°C
ветер,
м/с
пор.,
м/с
влажн.,
%
обл.,
%
осадки,
мм/ч
давл.,
гПа
погр.,
м
30 сентября, пт
пт3023:00+5вюв2381100 0.0 100746
02:00+5вюв378798 0.0 1006192
05:00+3вюв398821 0.0 1005224
08:00+4сз4593100 0.6 1007145
11:00+3сз71483100 0.2 1010793
14:00+6сз8116292 0.2 10121339
17:00+5сз61061100 0.0 10151402
20:00+2сз71166100 0.0 10181077
1 октября, сб
сб123:00+1сз71169100 0.0 10201011
02:00−1сз71268100 0.0 1022985
05:00−1сз7137372 0.0 1023932
08:00−2сз612716 0.0 1025859
11:00+2сз81054100 0.0 10261529
14:00+3сз81047100 0.1 10261924
17:00+3сз7104817 0.0 10271597
20:00−1сз510685 0.0 1030391
2 октября, вс
вс223:00−2зсз410765 0.0 1032357
02:00−3зсз397911 0.0 1033375
05:00−3зсз4108058 0.0 1034497
08:00−3зсз398513 0.0 1036529
11:00+1сз6864100 0.1 10361200
14:00+4сз71048100 0.6 10351989
17:00+3сз6949100 0.1 10351780
20:000сз3770100 0.1 1038196
3 октября, пн
пн323:000зсз4107299 0.0 1039589
02:00−1зсз597999 0.0 1040564
05:00−2зсз498587 0.0 1040456
08:00−2з3884100 0.0 1041460
11:00+2сз575589 0.0 10401120
14:00+4сз4645100 0.0 10381758
17:00+4ссз344585 0.0 10361386
20:00−1св34735 0.0 103863
4 октября, вт
вт423:00−2в117898 0.0 103710
02:00−2в1175100 0.0 103610
05:00−1ссв1172100 0.0 103518
08:00−1с2386100 0.1 1036219
11:00+1сз4585100 0.8 1036660
14:00+2ссз5663100 0.9 10351183
17:00+1ссз4563100 0.0 10351048
20:000сз3567100 0.0 1036144